W8APS Weather Reports


time (UTC)temp
F
wind
direction
speed
knots
gust
knots
rain 1hr
in
rain 24hr
in
rain mn
in
humidity
%
barometer
mb
20260903103039 70 0 0.0 0.0 0.00 0.00 0.00 91 1014.9
20260903102517 70 0 0.0 0.0 0.00 0.00 0.00 91 1014.9
20260903102017 70 0 0.0 0.0 0.00 0.00 0.00 91 1014.9
20260903101537 71 0 0.0 0.0 0.00 0.00 0.00 91 1014.7
20260903101020 71 0 0.0 0.0 0.00 0.00 0.00 91 1014.8
20260903100519 71 0 0.0 0.0 0.00 0.00 0.00 90 1014.8
20260903100039 71 0 0.0 0.0 0.00 0.00 0.00 90 1014.8
20260903095519 71 0 0.0 0.9 0.00 0.00 0.00 90 1014.9
20260903095018 71 0 0.0 0.9 0.00 0.00 0.00 90 1014.9
20260903094551 71 0 0.0 1.7 0.00 0.00 0.00 89 1014.8
20260903094016 71 0 0.0 1.7 0.00 0.00 0.00 89 1014.8
20260903093520 71 0 0.0 2.6 0.00 0.00 0.00 89 1014.7
20260903093037 72 0 0.0 2.6 0.00 0.00 0.00 89 1014.6
20260903092520 72 0 0.0 2.6 0.00 0.00 0.00 89 1014.6
20260903092019 72 255 0.0 2.6 0.00 0.00 0.00 89 1014.5
20260903091543 72 0 0.0 2.6 0.00 0.00 0.00 90 1014.5
20260903091017 72 0 0.9 2.6 0.00 0.00 0.00 90 1014.4
20260903090518 72 0 0.0 2.6 0.00 0.00 0.00 90 1014.4
20260903090038 72 0 0.0 2.6 0.00 0.00 0.00 90 1014.4
20260903085517 72 219 0.9 2.6 0.00 0.00 0.00 90 1014.4
20260903085019 72 0 0.0 0.9 0.00 0.00 0.00 89 1014.4
20260903084544 72 0 0.0 0.9 0.00 0.00 0.00 89 1014.3
20260903084016 72 0 0.0 2.6 0.00 0.00 0.00 89 1014.3
20260903083521 72 0 0.0 2.6 0.00 0.00 0.00 89 1014.2
20260903083037 72 0 0.0 2.6 0.00 0.00 0.00 89 1014.1
20260903082519 72 0 0.0 3.5 0.00 0.00 0.00 88 1014.1
20260903082017 72 232 1.7 3.5 0.00 0.00 0.00 88 1014.0
20260903081535 73 233 0.9 3.5 0.00 0.00 0.00 88 1014.0
20260903081017 73 231 0.9 3.5 0.00 0.00 0.00 88 1014.1
20260903080516 73 224 0.9 3.5 0.00 0.00 0.00 87 1014.1
20260903080034 73 257 0.9 4.3 0.00 0.00 0.00 87 1014.2
20260903075518 73 221 1.7 4.3 0.00 0.00 0.00 87 1014.1
20260903075018 73 226 0.9 3.5 0.00 0.00 0.00 87 1014.2
20260903074545 73 216 0.9 3.5 0.00 0.00 0.00 86 1014.3
20260903074020 73 224 0.9 3.5 0.00 0.00 0.00 86 1014.2
20260903073518 73 0 0.9 3.5 0.00 0.00 0.00 87 1014.1
20260903073039 73 240 0.9 3.5 0.00 0.00 0.00 88 1014.2
20260903072519 73 226 0.0 2.6 0.00 0.00 0.00 87 1014.3
20260903072017 73 0 0.0 2.6 0.00 0.00 0.00 88 1014.3
20260903071535 72 0 0.0 1.7 0.00 0.00 0.00 89 1014.3
20260903071018 72 0 0.0 0.9 0.00 0.00 0.00 90 1014.3
20260903070519 72 0 0.0 0.0 0.00 0.00 0.00 90 1014.3
20260903070035 72 0 0.0 1.7 0.00 0.00 0.00 91 1014.3
20260903065517 71 0 0.0 1.7 0.00 0.00 0.00 91 1014.3
20260903065017 71 0 0.0 1.7 0.00 0.00 0.00 92 1014.4
20260903064539 71 0 0.0 0.0 0.00 0.00 0.00 91 1014.2
20260903064017 71 0 0.0 0.0 0.00 0.00 0.00 91 1014.0
20260903063522 71 0 0.0 0.0 0.00 0.00 0.00 91 1014.0
20260903063036 72 0 0.0 1.7 0.00 0.00 0.00 91 1014.0
20260903062518 72 0 0.0 2.6 0.00 0.00 0.00 91 1014.2
20260903062017 72 0 0.0 3.5 0.00 0.00 0.00 91 1014.3
20260903061538 72 0 0.0 3.5 0.00 0.00 0.00 91 1014.3
20260903061024 72 172 0.0 0.0 0.00 0.00 0.00 92 1014.4
20260903060517 72 0 0.0 0.0 0.00 0.00 0.00 91 1014.4
20260903060041 72 0 0.0 0.0 0.00 0.00 0.00 91 1014.3
20260903055518 72 0 0.0 0.0 0.00 0.00 0.00 91 1014.4
20260903055020 72 0 0.0 0.0 0.00 0.00 0.00 91 1014.6
20260903054536 72 0 0.0 0.0 0.00 0.00 0.00 90 1014.4
20260903054018 72 0 0.0 0.0 0.00 0.00 0.00 90 1014.3
20260903053522 72 0 0.0 0.0 0.00 0.00 0.00 90 1014.4
20260903053054 72 0 0.0 2.6 0.00 0.00 0.00 90 1014.4
20260903052523 72 0 0.0 2.6 0.00 0.00 0.00 90 1014.5
20260903052018 72 0 0.0 1.7 0.00 0.00 0.00 90 1014.5
20260903051538 72 160 0.0 2.6 0.00 0.00 0.00 90 1014.5
20260903051018 72 0 0.0 2.6 0.00 0.00 0.00 90 1014.6
20260903050519 72 172 0.0 2.6 0.00 0.00 0.00 90 1014.5
20260903050045 72 0 0.0 0.0 0.00 0.00 0.00 90 1014.5
20260903045519 73 0 0.0 0.0 0.00 0.00 0.00 90 1014.5
20260903045020 73 0 0.0 0.0 0.00 0.00 0.00 89 1014.4
20260903044535 73 0 0.0 0.9 0.00 0.00 0.00 89 1014.4
20260903044017 73 0 0.0 1.7 0.00 0.00 0.00 89 1014.3
20260903043520 73 0 0.0 4.3 0.00 0.00 0.00 89 1014.2
20260903043039 73 189 0.9 5.2 0.00 0.00 0.00 89 1014.2
20260903042516 73 190 1.7 7.0 0.00 0.00 0.00 89 1014.4
20260903042022 74 0 0.0 7.0 0.00 0.00 0.00 89 1014.3
20260903041539 74 183 1.7 7.0 0.00 0.00 0.00 89 1014.2
20260903041019 74 242 0.0 2.6 0.00 0.00 0.00 89 1014.3
20260903040520 74 212 0.0 4.3 0.00 0.00 0.00 89 1014.1
20260903040037 74 0 0.9 7.0 0.00 0.00 0.00 88 1014.0
20260903035524 75 0 1.7 7.0 0.00 0.00 0.00 88 1014.2
20260903035016 75 186 2.6 9.6 0.00 0.00 0.00 87 1014.3
20260903034534 75 155 2.6 9.6 0.00 0.00 0.00 87 1014.2
20260903034019 76 163 3.5 9.6 0.00 0.00 0.00 86 1014.3
20260903033518 76 185 3.5 6.1 0.00 0.00 0.00 86 1014.2
20260903033038 76 189 1.7 8.7 0.00 0.00 0.00 86 1014.2
20260903032518 76 181 3.5 8.7 0.00 0.00 0.00 85 1014.0
20260903032022 76 191 3.5 7.8 0.00 0.00 0.00 85 1014.2
20260903031539 75 177 2.6 5.2 0.00 0.00 0.00 85 1014.3
20260903031019 75 0 0.0 2.6 0.00 0.00 0.00 86 1013.8
20260903030519 75 0 0.0 2.6 0.00 0.00 0.00 85 1013.5
20260903030037 75 257 0.0 0.0 0.00 0.00 0.00 85 1013.2
20260903025522 75 0 0.0 0.9 0.00 0.00 0.00 86 1013.6
20260903025017 75 0 0.0 0.9 0.00 0.00 0.00 85 1013.2
20260903024538 76 0 0.0 0.9 0.00 0.00 0.00 84 1012.8
20260903024018 76 0 0.0 0.9 0.00 0.00 0.00 84 1013.2
20260903023517 76 0 0.0 0.9 0.00 0.00 0.00 83 1013.3
20260903023040 76 0 0.0 0.9 0.00 0.00 0.00 83 1013.1
20260903022518 76 0 0.0 0.9 0.00 0.00 0.00 83 1013.1
20260903022019 76 0 0.0 0.9 0.00 0.00 0.00 82 1013.3
20260903021548 77 0 0.0 0.9 0.00 0.00 0.00 81 1013.7
20260903021016 77 0 0.0 1.7 0.00 0.00 0.00 80 1013.9
20260903020517 77 0 0.0 1.7 0.00 0.00 0.00 80 1014.2
20260903020034 77 0 0.0 1.7 0.00 0.00 0.00 79 1014.3
20260903015520 77 0 0.0 3.5 0.00 0.00 0.00 79 1014.3
20260903015018 77 354 0.0 3.5 0.00 0.00 0.00 78 1014.2
20260903014535 78 0 0.9 3.5 0.00 0.00 0.00 77 1014.3
20260903014019 78 26 0.9 4.3 0.00 0.00 0.00 77 1014.4
20260903013517 79 18 0.0 4.3 0.00 0.00 0.00 76 1014.2
20260903013034 79 25 1.7 7.0 0.00 0.00 0.00 75 1014.1
20260903012521 80 318 2.6 8.7 0.00 0.00 0.00 74 1014.1
20260903012016 81 350 2.6 8.7 0.00 0.00 0.00 73 1014.0
20260903011540 82 344 2.6 7.0 0.00 0.00 0.00 70 1013.9
20260903011020 82 297 0.0 7.0 0.00 0.00 0.00 68 1013.8
20260903010519 82 0 0.0 2.6 0.00 0.00 0.00 67 1013.6
20260903010038 82 0 0.0 2.6 0.00 0.00 0.00 64 1013.4
20260903005521 82 0 0.9 4.3 0.00 0.00 0.00 63 1013.3
20260903005018 83 0 0.0 4.3 0.00 0.00 0.00 64 1013.2
20260903004539 83 215 0.9 5.2 0.00 0.00 0.00 62 1013.2
20260903004017 83 236 0.9 7.8 0.00 0.00 0.00 62 1013.1
20260903003520 84 219 1.7 13.9 0.00 0.00 0.00 61 1013.2
20260903003036 84 219 2.6 18.2 0.00 0.00 0.00 62 1013.1
20260903002518 85 229 7.8 18.2 0.00 0.00 0.00 61 1013.1
20260903002017 85 229 3.5 12.2 0.00 0.00 0.00 65 1012.9
20260903001532 85 174 0.0 2.6 0.00 0.00 0.00 67 1012.8
20260903001018 85 248 0.0 1.7 0.00 0.00 0.00 66 1012.7
20260903000519 85 0 0.0 1.7 0.00 0.00 0.00 67 1013.0
20260903000037 86 0 0.0 0.9 0.00 0.00 0.00 66 1013.0
20260902235523 86 0 0.0 0.9 0.00 0.00 0.00 65 1012.9
20260902235018 86 168 0.0 3.5 0.00 0.00 0.00 66 1013.1
20260902234538 86 0 0.0 3.5 0.00 0.00 0.00 66 1013.2
20260902234016 86 0 0.0 3.5 0.00 0.00 0.00 66 1013.2
20260902233518 87 0 0.0 1.7 0.00 0.00 0.00 64 1013.2
20260902233034 87 0 0.0 0.9 0.00 0.00 0.00 65 1013.2
20260902232517 87 0 0.0 2.6 0.00 0.00 0.00 65 1013.1
20260902232016 87 0 0.0 2.6 0.00 0.00 0.00 63 1013.2
20260902231537 88 0 0.0 2.6 0.00 0.00 0.00 63 1013.2
20260902231017 88 276 0.0 2.6 0.00 0.00 0.00 62 1013.4
20260902230517 88 0 0.9 6.1 0.00 0.00 0.00 61 1013.4
20260902230039 88 0 0.0 7.8 0.00 0.00 0.00 60 1013.3
20260902225520 88 273 1.7 8.7 0.00 0.00 0.00 60 1013.4
20260902225018 89 239 3.5 8.7 0.00 0.00 0.00 59 1013.3
20260902224542 89 274 2.6 8.7 0.00 0.00 0.00 59 1013.2
20260902224018 89 234 2.6 13.0 0.00 0.00 0.00 58 1013.2
20260902223516 89 234 6.1 13.0 0.00 0.00 0.00 58 1013.0
20260902223041 89 260 6.1 12.2 0.00 0.00 0.00 57 1012.8
20260902222519 90 227 4.3 12.2 0.00 0.00 0.00 57 1012.7
20260902222018 90 155 5.2 12.2 0.00 0.00 0.00 56 1012.8
20260902221542 91 225 3.5 11.3 0.00 0.00 0.00 56 1012.7
20260902221020 90 236 2.6 8.7 0.00 0.00 0.00 57 1012.8
20260902220517 90 225 0.0 8.7 0.00 0.00 0.00 58 1012.8
20260902220045 90 214 3.5 8.7 0.00 0.00 0.00 57 1012.7
20260902215516 90 253 2.6 10.4 0.00 0.00 0.00 55 1012.9
20260902215016 90 228 4.3 10.4 0.00 0.00 0.00 55 1012.7
20260902214539 90 148 4.3 12.2 0.00 0.00 0.00 55 1012.4
20260902214018 90 254 5.2 12.2 0.00 0.00 0.00 54 1012.5
20260902213521 90 208 4.3 12.2 0.00 0.00 0.00 54 1012.5
20260902213038 90 226 4.3 11.3 0.00 0.00 0.00 53 1012.6
20260902212520 91 269 4.3 9.6 0.00 0.00 0.00 53 1012.6
20260902212020 91 199 2.6 9.6 0.00 0.00 0.00 56 1012.7
20260902211533 90 217 4.3 12.2 0.00 0.00 0.00 56 1012.8
20260902211019 90 220 5.2 12.2 0.00 0.00 0.00 57 1012.9
20260902210520 90 207 3.5 9.6 0.00 0.00 0.00 56 1012.8
20260902210105 91 263 1.7 9.6 0.00 0.00 0.00 56 1012.9
20260902205518 90 229 1.7 8.7 0.00 0.00 0.00 55 1013.0
20260902205019 90 226 3.5 9.6 0.00 0.00 0.00 54 1013.1
20260902204541 90 222 3.5 14.8 0.00 0.00 0.00 55 1013.2
20260902204021 90 135 7.8 14.8 0.00 0.00 0.00 53 1013.2
20260902203520 90 234 6.1 14.8 0.00 0.00 0.00 54 1013.3
20260902203038 91 238 3.5 11.3 0.00 0.00 0.00 55 1013.4
20260902202519 91 241 4.3 11.3 0.00 0.00 0.00 55 1013.4
20260902202018 91 217 3.5 11.3 0.00 0.00 0.00 55 1013.4
20260902201537 91 218 3.5 10.4 0.00 0.00 0.00 55 1013.5
20260902201019 91 175 5.2 9.6 0.00 0.00 0.00 54 1013.6
20260902200519 92 247 4.3 13.0 0.00 0.00 0.00 53 1013.7
20260902200036 92 241 4.3 13.9 0.00 0.00 0.00 53 1013.9
20260902195516 92 220 6.1 13.9 0.00 0.00 0.00 52 1013.9
20260902195017 92 203 4.3 12.2 0.00 0.00 0.00 51 1014.0
20260902194539 92 261 4.3 12.2 0.00 0.00 0.00 53 1014.0
20260902194016 92 240 3.5 10.4 0.00 0.00 0.00 53 1013.9
20260902193519 92 316 3.5 7.0 0.00 0.00 0.00 53 1014.1
20260902193040 92 271 2.6 12.2 0.00 0.00 0.00 53 1014.2
20260902192519 91 250 2.6 12.2 0.00 0.00 0.00 53 1014.3
20260902192019 92 277 3.5 12.2 0.00 0.00 0.00 54 1014.3
20260902191543 92 241 6.1 13.0 0.00 0.00 0.00 51 1014.4
20260902191020 92 264 4.3 13.9 0.00 0.00 0.00 51 1014.4
20260902190518 92 206 6.1 13.9 0.00 0.00 0.00 50 1014.4
20260902190039 91 269 4.3 10.4 0.00 0.00 0.00 52 1014.4
20260902185518 91 161 4.3 12.2 0.00 0.00 0.00 50 1014.4
20260902185018 91 217 5.2 12.2 0.00 0.00 0.00 52 1014.4
20260902184540 91 218 5.2 13.0 0.00 0.00 0.00 52 1014.3
20260902184018 92 231 3.5 13.0 0.00 0.00 0.00 54 1014.2
20260902183518 92 240 3.5 13.0 0.00 0.00 0.00 53 1014.2
20260902183039 91 219 4.3 9.6 0.00 0.00 0.00 55 1014.2
20260902182523 92 225 3.5 9.6 0.00 0.00 0.00 54 1014.2
20260902182021 91 242 2.6 7.0 0.00 0.00 0.00 55 1014.4
20260902181540 91 271 1.7 9.6 0.00 0.00 0.00 55 1014.4
20260902181028 91 266 4.3 9.6 0.00 0.00 0.00 54 1014.3
20260902180518 91 212 2.6 8.7 0.00 0.00 0.00 55 1014.3
20260902180050 91 212 5.2 10.4 0.00 0.00 0.00 56 1014.2
20260902175520 91 172 4.3 10.4 0.00 0.00 0.00 56 1014.2
20260902175022 91 170 3.5 7.8 0.00 0.00 0.00 57 1014.3
20260902174538 91 201 2.6 8.7 0.00 0.00 0.00 57 1014.4
20260902174020 90 236 2.6 8.7 0.00 0.00 0.00 58 1014.5
20260902173520 90 243 3.5 7.8 0.00 0.00 0.00 58 1014.6
20260902173034 91 225 1.7 9.6 0.00 0.00 0.00 58 1014.7
20260902172519 91 312 1.7 10.4 0.00 0.00 0.00 57 1014.9
20260902172019 90 200 4.3 10.4 0.00 0.00 0.00 57 1015.0
20260902171540 91 186 2.6 10.4 0.00 0.00 0.00 57 1015.0
20260902171021 90 227 2.6 7.8 0.00 0.00 0.00 60 1015.1
20260902170520 90 217 1.7 7.8 0.00 0.00 0.00 60 1015.3
20260902170038 90 260 0.9 6.1 0.00 0.00 0.00 61 1015.3
20260902165519 90 243 0.9 6.1 0.00 0.00 0.00 61 1015.4
20260902165019 90 226 0.0 7.0 0.00 0.00 0.00 64 1015.5
20260902164537 89 245 1.7 7.0 0.00 0.00 0.00 64 1015.6
20260902164018 89 313 2.6 8.7 0.00 0.00 0.00 62 1015.6
20260902163518 89 194 2.6 10.4 0.00 0.00 0.00 61 1015.7
20260902163038 89 297 3.5 10.4 0.00 0.00 0.00 62 1015.7
20260902162515 89 238 3.5 10.4 0.00 0.00 0.00 62 1015.8
20260902162016 89 254 3.5 10.4 0.00 0.00 0.00 63 1015.7
20260902161539 89 233 4.3 10.4 0.00 0.00 0.00 62 1015.7
20260902161021 89 240 3.5 11.3 0.00 0.00 0.00 62 1015.7
20260902160520 89 192 3.5 11.3 0.00 0.00 0.00 62 1015.7
20260902160040 89 250 4.3 11.3 0.00 0.00 0.00 59 1015.7
20260902155520 90 258 2.6 7.8 0.00 0.00 0.00 60 1015.7
20260902155020 89 212 2.6 7.8 0.00 0.00 0.00 61 1015.4
20260902154533 89 264 3.5 7.0 0.00 0.00 0.00 61 1015.4
20260902154016 89 0 0.9 9.6 0.00 0.00 0.00 63 1015.3
20260902153517 88 184 3.5 9.6 0.00 0.00 0.00 63 1015.4
20260902153041 88 232 1.7 7.8 0.00 0.00 0.00 63 1015.3
20260902152519 88 252 4.3 7.8 0.00 0.00 0.00 63 1015.3
20260902152017 88 228 2.6 9.6 0.00 0.00 0.00 62 1015.4
20260902151536 88 303 2.6 9.6 0.00 0.00 0.00 64 1015.3
20260902151018 88 177 4.3 8.7 0.00 0.00 0.00 65 1015.4
20260902150518 88 165 0.9 13.0 0.00 0.00 0.00 67 1015.3
20260902150038 87 0 2.6 13.0 0.00 0.00 0.00 67 1015.3
20260902145516 87 206 5.2 13.0 0.00 0.00 0.00 66 1015.3
20260902145017 87 213 1.7 8.7 0.00 0.00 0.00 69 1015.4
20260902144552 86 240 4.3 8.7 0.00 0.00 0.00 69 1015.3
20260902144020 86 212 3.5 9.6 0.00 0.00 0.00 69 1015.3
20260902143520 86 235 3.5 9.6 0.00 0.00 0.00 70 1015.3
20260902143037 86 196 1.7 7.0 0.00 0.00 0.00 71 1015.3
20260902142517 86 321 1.7 7.0 0.00 0.00 0.00 72 1015.4
20260902142016 85 236 0.9 7.0 0.00 0.00 0.00 73 1015.3
20260902141539 85 235 2.6 7.0 0.00 0.00 0.00 73 1015.2
20260902141016 85 226 0.0 6.1 0.00 0.00 0.00 74 1015.2
20260902140518 84 0 0.9 6.1 0.00 0.00 0.00 76 1015.3
20260902140038 84 236 0.0 4.3 0.00 0.00 0.00 76 1015.3
20260902135515 84 214 0.0 4.3 0.00 0.00 0.00 77 1015.3
20260902135016 83 188 0.0 4.3 0.00 0.00 0.00 78 1015.3
20260902134536 82 248 0.0 4.3 0.00 0.00 0.00 80 1015.3
20260902134019 82 237 0.9 5.2 0.00 0.00 0.00 81 1015.3
20260902133523 81 231 2.6 5.2 0.00 0.00 0.00 81 1015.5
20260902133038 81 149 0.9 4.3 0.00 0.00 0.00 83 1015.6
20260902132519 81 250 1.7 4.3 0.00 0.00 0.00 83 1015.5
20260902132021 80 242 0.9 8.7 0.00 0.00 0.00 84 1015.6
20260902131538 80 252 2.6 8.7 0.00 0.00 0.00 86 1015.5
20260902131019 80 245 1.7 7.0 0.00 0.00 0.00 85 1015.5
20260902130516 79 263 1.7 7.0 0.00 0.00 0.00 86 1015.5
20260902130039 79 248 1.7 7.0 0.00 0.00 0.00 86 1015.5
20260902125518 79 231 0.0 4.3 0.00 0.00 0.00 87 1015.4
20260902125016 78 258 0.9 6.1 0.00 0.00 0.00 88 1015.4
20260902124541 78 216 1.7 6.1 0.00 0.00 0.00 88 1015.5
20260902124020 78 247 0.9 6.1 0.00 0.00 0.00 89 1015.4
20260902123520 77 0 0.9 5.2 0.00 0.00 0.00 90 1015.5
20260902123035 77 0 0.9 5.2 0.00 0.00 0.00 91 1015.5
20260902122519 76 0 0.0 3.5 0.00 0.00 0.00 91 1015.4
20260902122019 76 0 0.0 4.3 0.00 0.00 0.00 91 1015.4
20260902121536 76 248 0.9 4.3 0.00 0.00 0.00 91 1015.4
20260902121021 76 233 0.9 3.5 0.00 0.00 0.00 91 1015.3
20260902120518 76 0 0.9 4.3 0.00 0.00 0.00 91 1015.5
20260902120045 76 0 1.7 4.3 0.00 0.00 0.00 91 1015.4
20260902115518 76 0 0.9 5.2 0.00 0.00 0.00 91 1015.4
20260902115016 76 0 0.9 5.2 0.00 0.00 0.00 91 1015.5
20260902114538 76 268 2.6 5.2 0.00 0.00 0.00 91 1015.3
20260902114021 76 249 0.9 5.2 0.00 0.00 0.00 91 1015.1
20260902113520 76 0 0.9 4.3 0.00 0.00 0.00 91 1015.1
20260902113044 76 210 2.6 7.0 0.00 0.00 0.00 91 1015.3
20260902112518 76 237 1.7 7.0 0.00 0.00 0.00 90 1015.2
20260902112019 76 274 0.9 7.0 0.00 0.00 0.00 90 1015.1
20260902111542 77 223 1.7 5.2 0.00 0.00 0.00 90 1015.1
20260902111016 77 233 1.7 7.8 0.00 0.00 0.00 90 1015.1
20260902110518 77 226 1.7 8.7 0.00 0.00 0.00 90 1015.0
20260902110033 77 180 2.6 8.7 0.00 0.00 0.00 89 1015.3
20260902105517 77 223 2.6 12.2 0.00 0.00 0.00 90 1015.5
20260902105016 77 251 1.7 12.2 0.00 0.00 0.00 90 1015.7
20260902104540 77 262 3.5 12.2 0.00 0.00 0.00 90 1015.8
20260902104019 76 270 1.7 6.1 0.00 0.00 0.00 91 1016.0
20260902103515 76 312 2.6 6.1 0.00 0.00 0.00 91 1015.8